Location: Aiyekoto
(8.4333°N, 4.3667°E)
Time: 13:12:01
(UTC+00:00)

A-11 Canister half - Visible Passes

Search period start: 26 September 2020 00:00
Search period end: 06 October 2020 00:00
Orbit: 1514 x 1686 km, 47.2° (Epoch: 25 September)

Date Brightness Start Highest point End Pass type
(mag) Time Alt. Az. Time Alt. Az. Time Alt. Az.
26 Sep 9.5 03:03:46 44° N 03:03:46 44° N 03:10:28 10° NNE visible
27 Sep 9.9 02:42:37 35° NNE 02:42:37 35° NNE 02:47:39 10° NNE visible
27 Sep 10.6 04:41:52 10° NW 04:44:23 11° NW 04:46:52 10° NNW visible
28 Sep 10.4 02:21:24 26° NNE 02:21:24 26° NNE 02:24:50 10° NNE visible
28 Sep 10.5 04:19:37 12° NW 04:21:19 12° NW 04:24:57 10° NNW visible
29 Sep 10.8 02:00:06 18° NNE 02:00:06 18° NNE 02:01:59 10° NNE visible
29 Sep 10.5 03:58:20 14° NW 03:58:20 14° NW 04:02:43 10° N visible
30 Sep 11.1 01:38:46 11° NE 01:38:46 11° NE 01:39:08 10° NE visible
30 Sep 10.5 03:36:59 15° NNW 03:36:59 15° NNW 03:40:21 10° N visible
01 Oct 10.7 03:15:34 14° NNW 03:15:34 14° NNW 03:17:53 10° N visible
02 Oct 10.8 02:54:07 13° N 02:54:07 13° N 02:55:22 10° N visible
03 Oct 11.0 02:32:37 10° N 02:32:37 10° N 02:32:48 10° N visible
